Weather History for Lee's Summit, MO

Change the Weather History Date:

Sunday, December 23, 2012

  Actual Average (KMKC) Record (KMKC)
Temperature  
Mean Temperature 30 °F -  
Max Temperature 36 °F 37 °F 52 °F (2005)
Min Temperature 24 °F 21 °F 5 °F (2004)
Degree Days  
Heating Degree Days 35    
Moisture  
Dew Point 22 °F    
Average Humidity 75    
Maximum Humidity 88    
Minimum Humidity 61    
Precipitation  
Precipitation 0.00 in - - ()
Sea Level Pressure  
Sea Level Pressure 29.96 in    
Wind  
Wind Speed 5 mph (North)    
Max Wind Speed 12 mph    
Max Gust Speed -    
Visibility 9 miles    
Events      
Averages and records for this station are not official NWS values.
T = Trace of Precipitation, MM = Missing Value Source: NWS Daily Summary

Daily Weather History Graph

Daily Weather History Graph

Search for Another Location

Airport:

Trip Planner

Search our weather history database for the weather conditions in past years. The results will help you decide how hot, cold, wet, or windy it might be!

Date:

Astronomy

Dec. 23, 2012 Rise Set
Actual Time 7:33 AM CST 4:59 PM CST
Civil Twilight 7:03 AM CST 5:30 PM CST
Nautical Twilight 6:30 AM CST 6:03 PM CST
Astronomical Twilight 5:57 AM CST 6:36 PM CST
Moon 1:50 PM CST (12/23) 3:18 AM CST (12/23)
Length of Visible Light 10h 26m
Length of Day
9h 26m
Waxing Gibbous, 82% of the Moon is Illuminated
Dec 23
Waxing Gibbous
Dec 28
Full
Jan 4
Last Quarter
Jan 11
New
Jan 18
First Quarter

Hourly Weather History & Observations

Time (CST) Temp. Windchill Dew Point Humidity Pressure Visibility Wind Dir Wind Speed Gust Speed Precip Events Conditions
12:53 AM 35.1 °F - 24.1 °F 64% 29.95 in 10.0 mi Calm Calm - N/A   Clear
1:53 AM 30.9 °F - 23.0 °F 72% 29.96 in 10.0 mi Calm Calm - N/A   Clear
2:53 AM 28.9 °F 25.2 °F 23.0 °F 78% 29.96 in 10.0 mi NNW 3.5 mph - N/A   Clear
3:53 AM 27.0 °F 20.5 °F 23.0 °F 85% 29.95 in 10.0 mi North 5.8 mph - N/A   Clear
4:53 AM 26.1 °F 18.4 °F 23.0 °F 88% 29.95 in 10.0 mi North 6.9 mph - N/A   Clear
5:53 AM 25.0 °F 18.1 °F 21.9 °F 88% 29.96 in 8.0 mi North 5.8 mph - N/A   Clear
6:53 AM 24.1 °F 15.2 °F 21.0 °F 88% 29.97 in 7.0 mi North 8.1 mph - N/A   Clear
7:53 AM 24.1 °F 14.4 °F 21.0 °F 88% 29.99 in 5.0 mi North 9.2 mph - N/A   Clear
8:53 AM 25.0 °F 14.2 °F 19.9 °F 81% 30.00 in 6.0 mi NNE 11.5 mph - N/A   Haze
9:53 AM 26.1 °F 17.6 °F 19.9 °F 78% 30.02 in 7.0 mi NNE 8.1 mph - N/A   Clear
10:53 AM 28.0 °F 21.7 °F 21.0 °F 75% 30.00 in 7.0 mi North 5.8 mph - N/A   Clear
11:53 AM 32.0 °F 25.6 °F 23.0 °F 69% 29.95 in 9.0 mi NE 6.9 mph - N/A   Clear
12:53 PM 35.1 °F 31.0 °F 23.0 °F 61% 29.93 in 10.0 mi North 4.6 mph - N/A   Clear
1:53 PM 36.0 °F 31.1 °F 24.1 °F 62% 29.93 in 10.0 mi NNE 5.8 mph - N/A   Clear
2:53 PM 36.0 °F 32.1 °F 24.1 °F 62% 29.93 in 10.0 mi North 4.6 mph - N/A   Clear
3:53 PM 35.1 °F 29.3 °F 24.1 °F 64% 29.94 in 10.0 mi North 6.9 mph - N/A   Clear
4:53 PM 32.0 °F 24.2 °F 23.0 °F 69% 29.93 in 9.0 mi NNE 9.2 mph - N/A   Clear
5:53 PM 30.0 °F 23.2 °F 21.9 °F 72% 29.95 in 9.0 mi North 6.9 mph - N/A   Clear
6:53 PM 28.9 °F 21.1 °F 21.0 °F 72% 29.96 in 9.0 mi North 8.1 mph - N/A   Clear
7:53 PM 28.0 °F 21.7 °F 21.0 °F 75% 29.99 in 9.0 mi NNW 5.8 mph - N/A   Clear
8:53 PM 27.0 °F 19.5 °F 21.0 °F 78% 29.99 in 8.0 mi NNW 6.9 mph - N/A   Clear
9:53 PM 27.0 °F 20.5 °F 21.0 °F 78% 29.97 in 7.0 mi NNW 5.8 mph - N/A   Clear
10:53 PM 27.0 °F 19.5 °F 19.9 °F 75% 29.99 in 8.0 mi NNW 6.9 mph - N/A   Clear
11:53 PM 26.1 °F 18.4 °F 19.0 °F 75% 29.98 in 8.0 mi NW 6.9 mph - N/A   Clear